Tiempo cada hora 1-e Tukatovo

Hoy, 23 Junio, Miércoles

Tiempo Temperatura Precipitaciones Viento Presión Humedad
00:00 +21°C° 0 mm 1 mps 739 mmHg 80%
01:00 +19°C° 0 mm 0 mps 739 mmHg 83%
02:00 +19°C° 0 mm 0 mps 738 mmHg 83%
03:00 +18°C° 0 mm 0 mps 738 mmHg 83%
04:00 +18°C° 0 mm 0 mps 738 mmHg 83%
05:00 +22°C° 0 mm 1 mps 738 mmHg 78%
06:00 +24°C° 0 mm 1 mps 738 mmHg 73%
07:00 +25°C° 0 mm 1 mps 738 mmHg 68%
08:00 +26°C° 0.2 mm 2 mps 738 mmHg 66%
09:00 +27°C° 0.2 mm 3 mps 738 mmHg 64%
10:00 +28°C° 0.2 mm 4 mps 738 mmHg 63%
11:00 +30°C° 0 mm 5 mps 738 mmHg 54%
12:00 +32°C° 0 mm 5 mps 738 mmHg 45%
13:00 +33°C° 0 mm 6 mps 737 mmHg 37%
14:00 +30°C° 0.5 mm 6 mps 738 mmHg 48%
15:00 +28°C° 0.5 mm 6 mps 738 mmHg 59%
16:00 +26°C° 0.5 mm 6 mps 738 mmHg 70%
17:00 +23°C° 2.8 mm 5 mps 737 mmHg 77%
18:00 +21°C° 2.8 mm 4 mps 737 mmHg 84%
19:00 +19°C° 2.8 mm 3 mps 737 mmHg 91%
20:00 +18°C° 0.1 mm 2 mps 737 mmHg 91%
21:00 +19°C° 0.1 mm 1 mps 737 mmHg 90%
22:00 +18°C° 0.1 mm 1 mps 738 mmHg 89%
23:00 +18°C° 0.1 mm 1 mps 737 mmHg 90%

Mañana, 24 Junio, Jueves

Tiempo Temperatura Precipitaciones Viento Presión Humedad
00:00 +18°C° 0.1 mm 1 mps 737 mmHg 91%
01:00 +16°C° 0.1 mm 1 mps 737 mmHg 91%
02:00 +16°C° 0 mm 1 mps 737 mmHg 92%
03:00 +16°C° 0 mm 1 mps 737 mmHg 93%
04:00 +16°C° 0 mm 1 mps 737 mmHg 94%
05:00 +17°C° 0 mm 2 mps 738 mmHg 92%
06:00 +18°C° 0 mm 2 mps 738 mmHg 91%
07:00 +19°C° 0 mm 3 mps 738 mmHg 89%
08:00 +19°C° 0 mm 3 mps 739 mmHg 84%
09:00 +20°C° 0 mm 2 mps 739 mmHg 80%
10:00 +21°C° 0 mm 2 mps 739 mmHg 75%
11:00 +21°C° 0 mm 2 mps 739 mmHg 72%
12:00 +23°C° 0 mm 2 mps 739 mmHg 69%
13:00 +24°C° 0 mm 2 mps 739 mmHg 67%
14:00 +24°C° 0 mm 1 mps 739 mmHg 63%
15:00 +25°C° 0 mm 1 mps 739 mmHg 60%
16:00 +26°C° 0 mm 1 mps 738 mmHg 57%
17:00 +26°C° 0 mm 1 mps 738 mmHg 61%
18:00 +25°C° 0 mm 1 mps 738 mmHg 65%
19:00 +25°C° 0 mm 1 mps 738 mmHg 68%
20:00 +23°C° 0 mm 1 mps 738 mmHg 74%
21:00 +21°C° 0 mm 1 mps 737 mmHg 79%
22:00 +17°C° 0 mm 0 mps 737 mmHg 84%
23:00 +17°C° 0 mm 0 mps 737 mmHg 85%

Pasado mañana, 25 Junio, Viernes

Tiempo Temperatura Precipitaciones Viento Presión Humedad
00:00 +16°C° 0 mm 0 mps 737 mmHg 86%
01:00 +16°C° 0 mm 0 mps 736 mmHg 87%
02:00 +15°C° 0 mm 0 mps 736 mmHg 88%
03:00 +15°C° 0 mm 0 mps 736 mmHg 88%
04:00 +15°C° 0 mm 0 mps 736 mmHg 89%
05:00 +17°C° 0 mm 0 mps 736 mmHg 83%
06:00 +19°C° 0 mm 0 mps 736 mmHg 77%
07:00 +21°C° 0 mm 0 mps 736 mmHg 71%
08:00 +24°C° 0 mm 1 mps 736 mmHg 66%
09:00 +26°C° 0 mm 2 mps 736 mmHg 61%
10:00 +28°C° 0 mm 2 mps 736 mmHg 56%
11:00 +29°C° 0 mm 3 mps 736 mmHg 53%
12:00 +30°C° 0 mm 3 mps 735 mmHg 50%
13:00 +32°C° 0 mm 4 mps 735 mmHg 46%
14:00 +31°C° 0 mm 3 mps 735 mmHg 48%
15:00 +31°C° 0 mm 3 mps 735 mmHg 49%
16:00 +30°C° 0 mm 3 mps 735 mmHg 50%
17:00 +30°C° 0 mm 3 mps 735 mmHg 54%
18:00 +29°C° 0 mm 3 mps 734 mmHg 58%
19:00 +28°C° 0 mm 2 mps 734 mmHg 62%
20:00 +26°C° 0.1 mm 2 mps 734 mmHg 69%
21:00 +25°C° 0.1 mm 2 mps 734 mmHg 75%
22:00 +23°C° 0.1 mm 1 mps 734 mmHg 82%
23:00 +22°C° 0 mm 1 mps 734 mmHg 84%

26 Junio, Sábado

Tiempo Temperatura Precipitaciones Viento Presión Humedad
00:00 +22°C° 0 mm 1 mps 734 mmHg 86%
01:00 +19°C° 0 mm 0 mps 734 mmHg 88%
02:00 +19°C° 0 mm 0 mps 734 mmHg 88%
03:00 +18°C° 0 mm 0 mps 734 mmHg 89%
04:00 +18°C° 0 mm 0 mps 734 mmHg 90%
05:00 +20°C° 0 mm 0 mps 734 mmHg 84%
06:00 +23°C° 0 mm 1 mps 734 mmHg 79%
07:00 +25°C° 0 mm 1 mps 734 mmHg 74%
08:00 +26°C° 0 mm 1 mps 734 mmHg 68%
09:00 +28°C° 0 mm 2 mps 734 mmHg 61%
10:00 +30°C° 0 mm 2 mps 734 mmHg 54%
11:00 +30°C° 0 mm 2 mps 734 mmHg 51%
12:00 +31°C° 0 mm 2 mps 734 mmHg 47%
13:00 +32°C° 0 mm 2 mps 733 mmHg 44%
14:00 +33°C° 0 mm 3 mps 733 mmHg 45%
15:00 +31°C° 0 mm 3 mps 733 mmHg 47%
16:00 +32°C° 0 mm 4 mps 733 mmHg 48%
17:00 +30°C° 0 mm 4 mps 733 mmHg 52%
18:00 +30°C° 0 mm 3 mps 733 mmHg 56%
19:00 +29°C° 0 mm 3 mps 733 mmHg 60%
20:00 +27°C° 0.2 mm 3 mps 733 mmHg 68%
21:00 +25°C° 0.2 mm 2 mps 733 mmHg 77%
22:00 +23°C° 0.2 mm 2 mps 733 mmHg 85%
23:00 +23°C° 0.2 mm 2 mps 733 mmHg 88%

27 Junio, Domingo

Tiempo Temperatura Precipitaciones Viento Presión Humedad
00:00 +21°C° 0.2 mm 2 mps 732 mmHg 90%
01:00 +21°C° 0.2 mm 2 mps 732 mmHg 92%
02:00 +20°C° 0 mm 2 mps 732 mmHg 92%
03:00 +20°C° 0 mm 2 mps 732 mmHg 93%
04:00 +19°C° 0 mm 2 mps 732 mmHg 93%
05:00 +21°C° 0 mm 2 mps 733 mmHg 90%
06:00 +23°C° 0 mm 2 mps 733 mmHg 87%
07:00 +24°C° 0 mm 2 mps 733 mmHg 83%
08:00 +26°C° 0 mm 2 mps 733 mmHg 72%
09:00 +28°C° 0 mm 3 mps 733 mmHg 60%
10:00 +30°C° 0 mm 4 mps 733 mmHg 48%
11:00 +32°C° 0 mm 4 mps 733 mmHg 45%
12:00 +32°C° 0 mm 4 mps 733 mmHg 42%
13:00 +33°C° 0 mm 4 mps 732 mmHg 38%
14:00 +33°C° 0 mm 4 mps 732 mmHg 39%
15:00 +33°C° 0 mm 5 mps 732 mmHg 40%
16:00 +33°C° 0 mm 5 mps 732 mmHg 40%
17:00 +32°C° 0.1 mm 4 mps 731 mmHg 48%
18:00 +29°C° 0.1 mm 4 mps 731 mmHg 56%
19:00 +27°C° 0.1 mm 4 mps 731 mmHg 64%
20:00 +25°C° 0.5 mm 3 mps 731 mmHg 72%
21:00 +24°C° 0.5 mm 2 mps 731 mmHg 80%
22:00 +22°C° 0.5 mm 1 mps 730 mmHg 88%
23:00 +21°C° 0 mm 1 mps 730 mmHg 90%

28 Junio, Lunes

Tiempo Temperatura Precipitaciones Viento Presión Humedad
00:00 +20°C° 0 mm 1 mps 730 mmHg 92%
01:00 +20°C° 0 mm 1 mps 730 mmHg 94%
02:00 +19°C° 0.3 mm 2 mps 730 mmHg 95%
03:00 +19°C° 0.3 mm 2 mps 730 mmHg 96%
04:00 +19°C° 0.3 mm 2 mps 730 mmHg 97%
05:00 +19°C° 0.2 mm 2 mps 730 mmHg 93%
06:00 +20°C° 0.2 mm 3 mps 730 mmHg 90%
07:00 +21°C° 0.2 mm 3 mps 730 mmHg 87%
08:00 +22°C° 0 mm 4 mps 730 mmHg 73%
09:00 +25°C° 0 mm 4 mps 730 mmHg 59%
10:00 +26°C° 0 mm 5 mps 730 mmHg 44%
11:00 +27°C° 0 mm 5 mps 729 mmHg 41%
12:00 +27°C° 0 mm 6 mps 729 mmHg 38%
13:00 +28°C° 0 mm 6 mps 729 mmHg 35%
14:00 +28°C° 0 mm 7 mps 729 mmHg 37%
15:00 +27°C° 0 mm 7 mps 729 mmHg 39%
16:00 +27°C° 0 mm 8 mps 729 mmHg 41%
17:00 +23°C° 0 mm 8 mps 729 mmHg 48%
18:00 +21°C° 0 mm 7 mps 730 mmHg 54%
19:00 +19°C° 0 mm 6 mps 730 mmHg 61%
20:00 +16°C° 0 mm 5 mps 730 mmHg 64%
21:00 +14°C° 0 mm 4 mps 730 mmHg 67%
22:00 +12°C° 0 mm 3 mps 730 mmHg 70%
23:00 +11°C° 0 mm 3 mps 730 mmHg 74%
Mostrar más

Necesitamos Su Consentimiento

Meteoprog y nuestros Proveedores de Servicios pueden almacenar y acceder a sus datos personales como cookies, identificadores de dispositivo u otras tecnologías similares de su dispositivo y procesar dichos datos para personalizar contenido y anuncios, además de ofrecer funciones de redes sociales y analizar el tráfico.

  • Almacenar y/o acceder a información en su dispositivo

    Se puede almacenar o acceder a cookies, identificadores de dispositivo u otra información de su dispositivo para los fines anteriormente indicados.

  • Anuncios y contenido personalizados, medición de anuncios y contenido, percepciones del público, y desarrollo de productos

    Los anuncios y el contenido pueden personalizarse en base a su perfil. Se pueden añadir más datos para personalizar mejor los anuncios y contenidos. Se puede medir el rendimiento de los anuncios y contenidos. Se puede obtener la percepción sobre el público que ha visto los anuncios y contenidos. Dichos datos pueden usarse para desarrollar o mejorar la experiencia del usuario, sistemas y software.

Al hacer clic en ‘Estoy De Acuerdo’ usted permitirá el uso de las cookies, identificadores de dispositivo, balizas web u otras tecnologías similares indicadas. Su configuración puede cambiarse desde el navegador de su dispositivo.

Para ciertos fines, los intereses legítimos pueden ser considerados por encima del consentimiento. Puede leer más sobre ello en nuestra Política de Privacidad y Cookies.